Kingstree, SC

6:47 AM EST on December 07, 2019 (GMT -0500)
Williamsburg County

Weather History for KCKI - October, 2019

Change the Weather History Date:

Saturday, October 19, 2019

  Actual Average Record
Temperature  
Mean Temperature 58 °F -  
Max Temperature 69 °F 75 °F 87 °F (2016)
Min Temperature 46 °F 46 °F 37 °F (2015)
Degree Days  
Heating Degree Days 8    
Growing Degree Days 8 (Base 50)    
Moisture  
Dew Point 54 °F    
Average Humidity 89    
Maximum Humidity 100    
Minimum Humidity 59    
Precipitation  
Precipitation 0.00 in - - ()
Sea Level Pressure  
Sea Level Pressure 29.97 in    
Wind  
Wind Speed 2 mph ()    
Max Wind Speed 13 mph    
Max Gust Speed 18 mph    
Visibility 7.4 miles    
Events Rain    
Averages and records for this station are not official NWS values.
T = Trace of Precipitation, MM = Missing Value Source: Averaged Metar Reports

Daily Weather History Graph

Daily Weather History Graph

Search for Another Location

Airport or City:

Astronomy

Oct. 19, 2019 Rise Set
Actual Time 7:27 AM EDT 6:41 PM EDT
Civil Twilight 7:02 AM EDT 7:06 PM EDT
Nautical Twilight 6:33 AM EDT 7:35 PM EDT
Astronomical Twilight 6:04 AM EDT 8:04 PM EDT
Moon 11:00 PM EDT (10/19) 12:46 PM EDT (10/19)
Length of Visible Light 12h 04m
Length of Day
11h 13m
Waning Gibbous, 70% of the Moon is Illuminated
Oct 19
Waning Gibbous
Oct 21
Last Quarter
Oct 27
New
Nov 4
First Quarter
Nov 12
Full

Hourly Weather History & Observations

Time (EDT) Temp. Dew Point Humidity Pressure Visibility Wind Dir Wind Speed Gust Speed Precip Events Conditions
12:15 AM 48.2 °F 46.4 °F 93% 30.04 in 7.0 mi Calm Calm - N/A   Clear
12:35 AM 46.4 °F 46.4 °F 100% 30.04 in 10.0 mi Calm Calm - N/A   Clear
12:55 AM 46.4 °F 46.4 °F 100% 30.04 in 7.0 mi Calm Calm - N/A   Clear
1:15 AM 46.4 °F 44.6 °F 93% 30.05 in 7.0 mi Calm Calm - N/A   Clear
1:35 AM 46.4 °F 46.4 °F 100% 30.05 in 7.0 mi Calm Calm - N/A   Clear
1:55 AM 46.4 °F 46.4 °F 100% 30.04 in 7.0 mi Calm Calm - N/A   Clear
2:15 AM 46.4 °F 46.4 °F 100% 30.04 in 7.0 mi Calm Calm - N/A   Clear
2:35 AM 48.2 °F 46.4 °F 93% 30.04 in 5.0 mi Calm Calm - N/A   Clear
2:55 AM 46.4 °F 46.4 °F 100% 30.03 in 7.0 mi Calm Calm - N/A   Clear
3:15 AM 50.0 °F 48.2 °F 94% 30.03 in 7.0 mi Calm Calm - N/A   Clear
3:55 AM 50.0 °F 44.6 °F 82% 30.02 in 10.0 mi Calm Calm - N/A   Clear
4:15 AM 48.2 °F 46.4 °F 93% 30.03 in 7.0 mi Calm Calm - N/A   Clear
4:35 AM 46.4 °F 46.4 °F 100% 30.04 in 7.0 mi Calm Calm - N/A   Clear
4:55 AM 50.0 °F 46.4 °F 87% 30.03 in 7.0 mi Calm Calm - N/A   Clear
5:15 AM 50.0 °F 46.4 °F 87% 30.03 in 7.0 mi Calm Calm - N/A   Clear
5:35 AM 50.0 °F 46.4 °F 87% 30.03 in 7.0 mi Calm Calm - N/A   Clear
5:55 AM 50.0 °F 46.4 °F 87% 30.04 in 7.0 mi Calm Calm - N/A   Clear
6:15 AM 50.0 °F 46.4 °F 87% 30.04 in 7.0 mi Calm Calm - N/A   Clear
6:35 AM 51.8 °F 46.4 °F 82% 30.04 in 10.0 mi Calm Calm - N/A   Mostly Cloudy
6:55 AM 51.8 °F 46.4 °F 82% 30.03 in 7.0 mi Calm Calm - N/A   Overcast
7:15 AM 51.8 °F 44.6 °F 76% 30.03 in 7.0 mi Calm Calm - N/A   Overcast
7:35 AM 51.8 °F 44.6 °F 76% 30.04 in 7.0 mi Calm Calm - N/A   Mostly Cloudy
7:55 AM 51.8 °F 44.6 °F 76% 30.04 in 7.0 mi Calm Calm - N/A   Overcast
8:15 AM 53.6 °F 44.6 °F 72% 30.04 in 7.0 mi Calm Calm - N/A   Mostly Cloudy
8:35 AM 53.6 °F 44.6 °F 72% 30.05 in 7.0 mi Calm Calm - N/A   Scattered Clouds
8:55 AM 53.6 °F 44.6 °F 72% 30.05 in 5.0 mi Calm Calm - N/A   Haze
9:15 AM 55.4 °F 44.6 °F 67% 30.05 in 7.0 mi Calm Calm - N/A   Mostly Cloudy
9:35 AM 57.2 °F 44.6 °F 63% 30.05 in 7.0 mi Calm Calm - N/A   Mostly Cloudy
9:55 AM 59.0 °F 44.6 °F 59% 30.06 in 7.0 mi Calm Calm - N/A   Mostly Cloudy
10:15 AM 59.0 °F 46.4 °F 63% 30.05 in 7.0 mi NE 3.5 mph - N/A   Overcast
10:35 AM 60.8 °F 46.4 °F 59% 30.05 in 7.0 mi NE 4.6 mph - N/A   Overcast
10:55 AM 60.8 °F 48.2 °F 63% 30.05 in 10.0 mi Calm Calm - N/A   Overcast
11:15 AM 60.8 °F 50.0 °F 68% 30.05 in 10.0 mi Calm Calm - N/A   Overcast
11:35 AM 60.8 °F 51.8 °F 72% 30.05 in 10.0 mi NE 3.5 mph - N/A   Light Drizzle
11:55 AM 60.8 °F 53.6 °F 77% 30.05 in 10.0 mi Calm Calm - N/A Rain Light Rain
12:15 PM 59.0 °F 59.0 °F 100% 30.04 in 10.0 mi Calm Calm - N/A Rain Light Rain
12:35 PM 59.0 °F 59.0 °F 100% 30.04 in 10.0 mi Calm Calm - N/A Rain Light Rain
12:55 PM 59.0 °F 57.2 °F 94% 30.03 in 7.0 mi Calm Calm - N/A Rain Light Rain
1:15 PM 59.0 °F 57.2 °F 94% 30.02 in 7.0 mi Calm Calm - N/A   Drizzle
1:35 PM 59.0 °F 57.2 °F 94% 30.01 in 4.0 mi NE 3.5 mph - N/A Rain Rain
1:55 PM 59.0 °F 59.0 °F 100% 29.99 in 7.0 mi Calm Calm - N/A Rain Light Rain
2:35 PM 60.8 °F 59.0 °F 94% 29.98 in 10.0 mi NE 3.5 mph - N/A Rain Rain
2:55 PM 60.8 °F 59.0 °F 94% 29.97 in 7.0 mi NE 3.5 mph - N/A Rain Rain
3:15 PM 60.8 °F 59.0 °F 94% 29.96 in 7.0 mi ENE 4.6 mph - N/A Rain Rain
3:55 PM 60.8 °F 60.8 °F 100% 29.95 in 5.0 mi ENE 3.5 mph - N/A Rain Rain
4:15 PM 60.8 °F 60.8 °F 100% 29.93 in 10.0 mi Calm Calm - N/A Rain Light Rain
4:35 PM 60.8 °F 60.8 °F 100% 29.92 in 10.0 mi NE 5.8 mph - N/A   Overcast
4:55 PM 62.6 °F 60.8 °F 94% 29.92 in 7.0 mi NE 5.8 mph - N/A   Overcast
5:15 PM 62.6 °F 60.8 °F 94% 29.91 in 7.0 mi ENE 3.5 mph - N/A   Overcast
5:35 PM 62.6 °F 60.8 °F 94% 29.90 in 7.0 mi ENE 8.1 mph - N/A   Overcast
5:55 PM 62.6 °F 60.8 °F 94% 29.90 in 4.0 mi NE 4.6 mph - N/A Rain Rain
6:15 PM 62.6 °F 60.8 °F 94% 29.89 in 7.0 mi ENE 6.9 mph - N/A Rain Light Rain
6:35 PM 62.6 °F 60.8 °F 94% 29.88 in 10.0 mi ENE 5.8 mph - N/A Rain Rain
6:55 PM 62.6 °F 62.6 °F 100% 29.87 in 10.0 mi ENE 5.8 mph - N/A Rain Rain
7:15 PM 64.4 °F 62.6 °F 94% 29.87 in 10.0 mi ENE 8.1 mph - N/A Rain Rain
7:35 PM 64.4 °F 62.6 °F 94% 29.87 in 10.0 mi ENE 8.1 mph - N/A Rain Light Rain
7:55 PM 64.4 °F 62.6 °F 94% 29.86 in 10.0 mi ENE 6.9 mph - N/A Rain Light Rain
8:15 PM 64.4 °F 64.4 °F 100% 29.85 in 7.0 mi East 8.1 mph - N/A Rain Rain
8:35 PM 64.4 °F 64.4 °F 100% 29.84 in 7.0 mi ENE 4.6 mph - N/A Rain Light Rain
8:55 PM 66.2 °F 64.4 °F 94% 29.83 in 7.0 mi East 6.9 mph - N/A Rain Light Rain
9:15 PM 66.2 °F 64.4 °F 94% 29.82 in 5.0 mi ENE 6.9 mph - N/A Rain Rain
9:35 PM 68.0 °F 64.4 °F 88% 29.81 in 4.0 mi East 9.2 mph - N/A Rain Rain
9:55 PM 68.0 °F 66.2 °F 94% 29.81 in 7.0 mi East 12.7 mph 18.4 mph N/A Rain Light Rain
10:15 PM 68.0 °F 66.2 °F 94% 29.80 in 5.0 mi East 11.5 mph 17.3 mph N/A Rain Rain
10:35 PM 68.0 °F 68.0 °F 100% 29.80 in 7.0 mi East 11.5 mph 17.3 mph N/A Rain Heavy Rain
10:55 PM 69.8 °F 68.0 °F 94% 29.79 in 7.0 mi East 10.4 mph - N/A Rain Heavy Rain
11:15 PM 69.8 °F 68.0 °F 94% 29.78 in 3.0 mi East 9.2 mph - N/A Rain Heavy Rain
11:35 PM 69.8 °F 68.0 °F 94% 29.76 in 10.0 mi East 8.1 mph - N/A Rain Rain
11:55 PM 69.8 °F 68.0 °F 94% 29.74 in 5.0 mi East 11.5 mph - N/A Rain Rain